Location: Oroua River
(40.4333°S, 175.4333°E)
Time: 18:59:26
(UTC+00:00)

MSX - Pass Details

Date: 27 September 2023
Orbit: 895 x 905 km, 98.9° (Epoch: 29 November)

Event Time Altitude Azimuth Distance (km) Brightness Sun altitude
Exits shadow 12:50:26 14° 176° (S) 2,365 6.5 -46.9°
Drops below altitude 10° 12:51:09 10° 179° (S) 2,618 6.8 -46.8°
Sets 12:53:43 0° 186° (S) 3,567 7.6 -46.7°
